Location: Newark
(58.8333°N, 23.5833°E)
Time: 12:54:52
(UTC+00:00)

Explorer 7 - Pass Details

Date: 24 November 2019
Orbit: 485 x 680 km, 50.3° (Epoch: 12 December)

Event Time Altitude Azimuth Distance (km) Brightness Sun altitude
Rises 23:36:26 0° 255° (WSW) 2,933 - -48.9°
Reaches altitude 10° 23:39:04 10° 244° (WSW) 1,992 - -48.7°
Maximum altitude 23:42:54 27° 187° (S) 1,166 - -48.5°
Drops below altitude 10° 23:46:32 10° 129° (SE) 1,885 - -48.2°
Sets 23:48:58 0° 117° (ESE) 2,744 - -48.0°
